Volver al catálogo

THORAD DELTA 1 DEB

ActivoSSO
NORAD 42591·DEBRIS·🇺🇸 United States

Lanzado Nov 15, 1974 desde Vandenberg Space Force Base

Loading…

Próximos Pases (próximas 24 horas)

TLE

ActualizadoSource: Space-Track

Época: Sep 14, 2026, 00:02 UTC

1 42591U 74089BV  26257.00178209 -.00000010  00000-0  25546-3 0  9995
2 42591 101.8345   2.9226 0116295  76.2020 285.1952 12.34049521825252

Sigue THORAD DELTA 1 DEB en tiempo real con AllMySat

Download on the App Store